Hourly Data Report for June 18, 2017

BORDEN AWOS
ONTARIO

44°16'20.000" N
79°54'42.000" W
222.50 m
611B002
71534
YBN

Download Data

Hourly Data (June 2017)
Hourly Data Report for June 18, 2017
TIME
LST
Temp Definition
°C
Dew Point Definition
°C
Rel Hum Definition
%
Precip. Amount Definition
mm

Wind Dir Definition
10's deg

Wind Spd Definition
km/h
Visibility Definition
km
Stn Press Definition
kPa
Hmdx Definition


Wind Chill Definition


Weather Definition


00:00 19.7 19.1 96     0 14.5 97.83     LegendNANA
01:00 19.5 19.0 97   14 7 14.5 97.76     LegendNANA
02:00 19.1 18.9 99   1 4 14.5 97.72     LegendNANA
03:00 18.7 18.5 99   7 6 5.6 97.68     LegendNANA
04:00 19.9 19.1 95   14 15 12.9 97.62     LegendNANA
05:00 19.8 19.0 95   15 9 8.0 97.56     LegendNANA
06:00
07:00 21.6 20.2 92   16 15 14.5 97.51 29   LegendNANA
08:00 22.4 20.9 91   18 19 14.5 97.53 31   LegendNANA
09:00 24.7 21.7 83   19 19 14.5 97.44 34   LegendNANA
10:00 26.5 20.7 70   21 26 14.5 97.41 35   LegendNANA
11:00 27.2 20.8 68   22 24 14.5 97.41 35   LegendNANA
12:00 26.7 20.9 70   19 19 14.5 97.39 35   LegendNANA
13:00 27.2 21.0 69   21 22 14.5 97.34 36   Rain
14:00 27.0 19.9 65   22 35 14.5 97.33 34   Rain
15:00
16:00 26.8 19.3 64   21 19 14.5 97.35 34   LegendNANA
17:00 23.8 20.2 80   17 19 14.5 97.38 32   LegendNANA
18:00 24.4 20.5 79   19 11 14.5 97.39 32   LegendNANA
19:00 23.8 20.3 81   24 17 14.5 97.49 32   LegendNANA
20:00 22.0 15.3 66   24 13 14.5 97.61 26   LegendNANA
21:00 20.4 14.8 70   26 11 14.5 97.67     LegendNANA
22:00 19.5 14.1 71   25 15 14.5 97.73     LegendNANA
23:00 18.3 14.0 76   23 9 14.5 97.75     LegendNANA

Notes on Data Quality.

Legend

  • E = Estimated
  • M = Missing
  • NA = Not Available*
  • [empty] = Indicates an unobserved value
Date modified: